Flag for Germany Weather past 2 weeks in Varel, Lower Saxony, Germany

Now
55 °F

Broken clouds.


Feels Like: 51 °F
Forecast: 51 / 63 °F
Wind: 16 mph from Southwest

Location: Wittmundhaven

Current Time: Aug 22, 2014 at 10:27:05 AM

Latest Report: Aug 22, 2014 at 9:20 AM


Visibility: N/A

Pressure: 29.80 "Hg

Humidity: 82%

Dew point: 50 °F

Location of VarelLocation

Historic Weather in Varel — Graph

°F

Varel temperature yesterday

Maximum temperature yesterday: 63 °F (at 1:20 PM)
Minimum temperature yesterday: 46 °F (at 5:20 AM)
Average temperature yesterday: 54 °F

Past Weeks' High & Low Weather Summary

 TemperatureHumidityPressure
High79 °F (Aug 10, 3:20 PM)100% (Aug 8, 12:20 AM)30.01 "Hg (Aug 8, 12:20 AM)
Low46 °F (Aug 21, 5:20 AM)40% (Aug 11, 4:20 PM)29.47 "Hg (Aug 10, 9:20 PM)
Average60 °F79%29.77 "Hg
* Reported Aug 7 9:01 AM — Aug 22 9:20 AM, Varel, Weather by CustomWeather, © 2014

Note: Actual official high and low records may vary slightly from our data, if they occured in-between our weather recording intervals... More about our weather records

Advertising

Varel weather history for previous 24 hours

 ConditionsComfort  
Time TempWeatherWind HumidityBarometerVisibility
9:20 AM
Aug 22
55 °FBroken clouds.16 mph82%29.80 "HgN/A
8:20 AM54 °FBroken clouds.13 mph88%29.77 "HgN/A
7:20 AM54 °FLight rain. Partly sunny.12 mph88%29.80 "HgN/A
6:20 AM54 °FLight rain. Passing clouds.10 mph88%29.80 "HgN/A
5:20 AM52 °FPassing clouds.9 mph88%29.80 "HgN/A
4:20 AM52 °FPassing clouds.8 mph88%29.83 "HgN/A
3:20 AM52 °FPassing clouds.8 mph88%29.86 "HgN/A
2:20 AM52 °FPassing clouds.8 mph88%29.86 "HgN/A
1:20 AM52 °FPassing clouds.6 mph88%29.86 "HgN/A
12:20 AM52 °FPassing clouds.6 mph88%29.89 "HgN/A
11:20 PM
Aug 21
52 °FPassing clouds.6 mph94%29.89 "HgN/A
10:20 PM52 °FPassing clouds.6 mph94%29.89 "HgN/A
9:20 PM54 °FBroken clouds.7 mph88%29.92 "HgN/A
8:20 PM55 °FPartly sunny.6 mph88%29.89 "HgN/A
7:20 PM55 °FPartly sunny.5 mph88%29.92 "HgN/A
6:20 PM54 °FScattered showers. Partly sunny.3 mph88%29.92 "HgN/A
5:20 PM63 °FBroken clouds.14 mph56%29.92 "HgN/A
4:20 PM63 °FPartly sunny.14 mph56%29.92 "HgN/A
3:20 PM63 °FBroken clouds.15 mph52%29.92 "HgN/A
2:20 PM63 °FBroken clouds.10 mph52%29.95 "HgN/A
1:20 PM63 °FBroken clouds.13 mph52%29.95 "HgN/A
12:20 PM61 °FBroken clouds.15 mph55%29.95 "HgN/A
11:20 AM59 °FScattered clouds.8 mph68%29.95 "HgN/A
10:20 AM57 °FScattered clouds.12 mph72%29.95 "HgN/A
Weather by CustomWeather, © 2014

See weather overviewHow to use our weather pages